Hourly Weather Roundup
Issued by NWS Central Illinois

Home | Current Version | Previous Version | Text Only | Print | Product List | Glossary On
Versions: 1 2 3 4 5 6 7 8 9 10 11 12 13 14 15 16 17 18 19 20 21 22 23 24 25 26 27 28 29 30 31 32 33 34 35 36 37 38 39 40 41 42 43 44 45 46 47 48 49 50
000
NZUS43 KILX 010010
HWRILX

AREA WEATHER ROUNDUP
NATIONAL WEATHER SERVICE, LINCOLN IL
700 PM CDT THU JUL 31 2014


CITY           SKY/WX    TMP DP  RH WIND       PRES   REMARKS
BLOOMINGTON    SUNNY     76  58  53 SW7       30.07S
CHAMPAIGN      SUNNY     78  61  55 CALM      30.06F HX  80
6HR MIN TEMP:  78; 6HR MAX TEMP:  81;

DECATUR        SUNNY     78  62  57 CALM      30.06S HX  80
6HR MIN TEMP:  78; 6HR MAX TEMP:  83;

FLORA          SUNNY     77  65  65 SE3       30.05S
6HR MIN TEMP:  77; 6HR MAX TEMP:  83;

GALESBURG      MOSUNNY   78  65  64 SW5       30.05F HX  80
JACKSONVILLE   SUNNY     80  64  57 CALM      30.06S HX  81
6HR MIN TEMP:  80; 6HR MAX TEMP:  84;

LACON          SUNNY     78  64  61 CALM      30.03S HX  80
6HR MIN TEMP:  78; 6HR MAX TEMP:  82;

LAWRENCEVILLE  SUNNY     80  61  52 NW3       30.06S HX  81
6HR MIN TEMP:  79; 6HR MAX TEMP:  84;

LITCHFIELD     SUNNY     79  61  54 CALM      30.05S HX  80
$$


CITY           SKY/WX    TMP DP  RH WIND       PRES   REMARKS
LINCOLN        SUNNY     81  58  45 CALM      30.02S HX  81
6HR MIN TEMP:  80; 6HR MAX TEMP:  84;

MACOMB         SUNNY     77  64  65 CALM      30.07F
MATTOON        SUNNY     78  62  57 NE3       30.05S HX  80
6HR MIN TEMP:  77; 6HR MAX TEMP:  82;

MT CARMEL AP   MOSUNNY   81  64  57 CALM      30.06R HX  82
OLNEY-NOBLE AP CLOUDY    73  70  88 CALM      30.05S
PARIS          SUNNY     77  68  74 CALM      30.07S
6HR MIN TEMP:  77; 6HR MAX TEMP:  81;

PEORIA         SUNNY     80  60  50 W6        30.05S HX  81
6HR MIN TEMP:  80; 6HR MAX TEMP:  85;

PONTIAC        SUNNY     79  63  57 SW3       30.05S HX  80
RANTOUL        SUNNY     77  60  56 CALM      30.07S
6HR MIN TEMP:  77; 6HR MAX TEMP:  82;

ROBINSON       SUNNY     81  64  57 CALM      30.06S HX  82
6HR MIN TEMP:  78; 6HR MAX TEMP:  83;

SPRINGFIELD    MOSUNNY   82  62  50 CALM      30.05F HX  83
6HR MIN TEMP:  81; 6HR MAX TEMP:  85;

TAYLORVILLE    SUNNY     79  59  50 CALM      30.05S HX  80
$$

...REGIONAL REPORTS...


CITY           SKY/WX    TMP DP  RH WIND       PRES   REMARKS
CHICAGO O`HARE MOSUNNY   80  55  42 W12       30.01S HX  80
KANKAKEE       PTSUNNY   77  65  66 CALM      30.05S
MOLINE         MOSUNNY   79  61  53 SW6       30.02F HX  80
MOUNT VERNON   MOSUNNY   82  59  44 S3        30.06S HX  82
PITTSFIELD     SUNNY     79  63  57 CALM      30.06S HX  80
QUINCY         SUNNY     78  58  49 CALM      30.05F
ROCKFORD       SUNNY     77  57  50 W6        30.04R
$$


CITY           SKY/WX    TMP DP  RH WIND       PRES   REMARKS
BURLINGTON     SUNNY     78  62  57 CALM      30.04F HX  80
CEDAR RAPIDS   MOSUNNY   76  61  59 W5        30.03S
DES MOINES     CLOUDY    71  64  78 NW8       30.04S
KIRKSVILLE     SUNNY     82  57  42 CALM      30.06F HX  82
OTTUMWA        MOSUNNY   76  64  66 CALM      30.04F
ST LOUIS       MOSUNNY   83  58  42 E8        30.04F HX  83
$$


CITY           SKY/WX    TMP DP  RH WIND       PRES   REMARKS
TERRE HAUTE    CLOUDY    79  65  62 CALM      30.06S HX  81
EVANSVILLE     MOSUNNY   81  61  50 NW5       30.06S HX  82
INDIANAPOLIS   PTCLDY    76  59  55 W7        30.07S
LAFAYETTE      SUNNY     76  64  66 CALM      30.06R
MADISON        MOSUNNY   79  57  46 VRB5      30.00F HX  80
MILWAUKEE      PTSUNNY   80  55  42 W10       29.99S HX  80
$$




USA.gov is the U.S. government's official web portal to all federal, state and local government web resources and services.